FW3899 Weather Reports


Display with metric or nautical units.
time (UTC)temp
F
wind
direction
speed
MPH
gust
MPH
rain 1hr
in
rain 24hr
in
rain mn
in
humidity
%
barometer
mb
20260502213004 58 220 0.0 3.0 0.00 0.00 0.00 76 1015.8
20260502211503 58 220 3.0 5.0 0.00 0.00 0.00 73 1015.7
20260502210003 60 239 2.0 3.0 0.00 0.00 0.00 68 1015.7
20260502204503 62 241 0.0 2.0 0.00 0.00 0.00 65 1015.9
20260502203002 63 241 4.0 8.0 0.00 0.00 0.00 63 1015.7
20260502201501 65 237 4.0 9.0 0.00 0.00 0.00 60 1015.6
20260502200001 65 247 6.0 10.0 0.00 0.00 0.00 59 1015.8
20260502194601 64 246 5.0 9.0 0.00 0.00 0.00 61 1015.7
20260502193100 62 233 6.0 9.0 0.00 0.00 0.00 65 1015.7
20260502191603 61 206 2.0 4.0 0.00 0.00 0.00 70 1015.6
20260502190059 60 205 3.0 5.0 0.00 0.00 0.00 69 1015.6
20260502184558 61 204 2.0 5.0 0.00 0.00 0.00 68 1015.3
20260502183107 62 203 1.0 3.0 0.00 0.00 0.00 67 1015.3
20260502181558 63 209 3.0 4.0 0.00 0.00 0.00 65 1015.3
20260502163105 74 111 0.0 4.0 0.00 0.00 0.00 45 1015.6
20260502161559 74 86 1.0 4.0 0.00 0.00 0.00 45 1015.8
20260502151540 75 90 0.0 4.0 0.00 0.00 0.00 46 1016.5
20260502123013 73 58 4.0 8.0 0.00 0.00 0.00 51 1018.9
20260502121511 72 68 1.0 8.0 0.00 0.00 0.00 52 1019.0
20260502114506 71 8 3.0 8.0 0.00 0.00 0.00 54 1019.6
20260502113005 71 75 3.0 8.0 0.00 0.00 0.00 55 1019.9
20260502111502 72 47 5.0 8.0 0.00 0.00 0.00 56 1020.1
20260502110059 71 30 1.0 6.0 0.00 0.00 0.00 56 1020.4
20260502104557 71 284 2.0 6.0 0.00 0.00 0.00 59 1020.6
20260502103055 69 23 1.0 7.0 0.00 0.00 0.00 60 1020.7
20260502101556 69 74 3.0 7.0 0.00 0.00 0.00 58 1020.9
20260502071513 59 58 2.0 4.0 0.00 0.00 0.00 68 1022.2
20260502070016 59 74 0.0 3.0 0.00 0.00 0.00 70 1022.3
20260502064508 58 76 1.0 3.0 0.00 0.00 0.00 67 1022.3
20260502063005 59 220 1.0 2.0 0.00 0.00 0.00 66 1022.3
20260502061601 57 220 0.0 0.0 0.00 0.00 0.00 65 1022.4
20260502060057 56 220 0.0 2.0 0.00 0.00 0.00 67 1022.3
20260502054553 54 220 0.0 0.0 0.00 0.00 0.00 68 1022.4
20260502053053 53 220 0.0 0.0 0.00 0.00 0.00 73 1022.4
20260502051556 52 220 0.0 0.0 0.00 0.00 0.00 71 1022.4
20260502050045 50 220 0.0 0.0 0.00 0.00 0.00 77 1022.4
20260502044543 48 220 0.0 0.0 0.00 0.00 0.00 77 1022.2
20260502043038 46 220 0.0 2.0 0.00 0.00 0.00 77 1022.4
20260502041533 46 220 0.0 3.0 0.00 0.00 0.00 77 1022.4
20260502040030 46 220 1.0 5.0 0.00 0.00 0.00 78 1022.3
20260502034530 46 203 0.0 3.0 0.00 0.00 0.00 78 1022.2
20260502033029 45 203 2.0 4.0 0.00 0.00 0.00 80 1022.2
20260502031528 45 203 1.0 3.0 0.00 0.00 0.00 81 1022.3
20260502030026 45 202 0.0 2.0 0.00 0.00 0.00 78 1022.3
20260502024528 46 202 2.0 3.0 0.00 0.00 0.00 76 1022.5
20260502023023 46 202 0.0 3.0 0.00 0.00 0.00 75 1022.3
20260502021524 46 201 2.0 4.0 0.00 0.00 0.00 78 1022.4
20260502020020 45 200 1.0 3.0 0.00 0.00 0.00 75 1022.4
20260502014517 46 200 0.0 3.0 0.00 0.00 0.00 74 1022.4
20260502013017 46 200 0.0 2.0 0.00 0.00 0.00 74 1022.5
20260502011515 46 200 0.0 4.0 0.00 0.00 0.00 74 1022.5
20260502010020 47 199 1.0 4.0 0.00 0.00 0.00 73 1022.4
20260502004513 47 199 1.0 3.0 0.00 0.00 0.00 72 1022.4
20260502003009 47 197 2.0 4.0 0.00 0.00 0.00 71 1022.6
20260502001509 47 196 3.0 5.0 0.00 0.00 0.00 71 1022.6
20260502000008 47 196 1.0 3.0 0.00 0.00 0.00 71 1022.8
20260501234503 48 196 0.0 0.0 0.00 0.00 0.00 71 1022.6
20260501233001 49 196 0.0 3.0 0.00 0.00 0.00 69 1022.8
20260501231600 49 196 2.0 4.0 0.00 0.00 0.00 69 1022.7
20260501230104 49 190 3.0 4.0 0.00 0.00 0.00 69 1022.7
20260501224602 49 184 1.0 3.0 0.00 0.00 0.00 70 1022.8
20260501223054 50 184 0.0 3.0 0.00 0.00 0.00 69 1022.7
20260501221557 50 182 0.0 1.0 0.00 0.00 0.00 68 1022.7
20260501220046 52 182 0.0 0.0 0.00 0.00 0.00 65 1022.6
20260501214551 53 179 0.0 0.0 0.00 0.00 0.00 63 1022.5